Location: Azul
(36.7830°S, 59.8500°W)
Time: 00:01:17
(UTC-03:00)

ZACube-1 - Pass Details

Date: 30 October 2021
Orbit: 583 x 664 km, 97.6° (Epoch: 30 November)

Event Time Altitude Azimuth Distance (km) Brightness Sun altitude
Rises 03:58:49 0° 36° (NE) 2,943 ? -21.5°
Reaches altitude 10° 04:01:09 10° 46° (NE) 2,054 ? -21.2°
Maximum altitude 04:05:10 33° 109° (ESE) 1,118 ? -20.5°
Drops below altitude 10° 04:09:17 10° 172° (S) 2,110 ? -19.9°
Sets 04:11:43 0° 181° (S) 3,036 ? -19.5°
